Filtrer par Nom Sexe Groupe d'age
Picarde Baie de Somme GranFondo 2001
RG. DOS. TEMPS CAT RG. POINTS
4 125 FOSSE ANDRE 05:08:28 F 1 319.67 SOISSONS, FRANCE
5 7 JASSERAND BRUNO 05:09:31 D 1 319.30 LA MOTTE, FRANCE
7 655 DELARACE PHILIPPE 05:22:15 D 2 314.75 CALAIS, France
8 665 DELARACE JEAN PIERRE 05:22:18 D 3 314.73 CALAIS, FRANCE
9 222 CHARLEY FREDERIQUE 05:23:56 C 1 314.15 SAINT MAULVIS, FRANCE
10 30 LEUCKX MARC 05:24:26 D 4 313.97 LENNIK, BELGIQUE
11 106 THERON LAURENT 05:25:17 D 5 313.67 ST QUENTIN, FRANCE
12 695 LAMBERT VINCENT 05:32:00 E 1 311.27 LIMAY, FRANCE
13 53 PAINTER RUSSELL 05:32:07 C 2 311.23 ANERLEY, Royaume-uni
14 38 PEIRETTI LAURENT 05:32:28 D 6 311.10 VOISINS LE BRETONNEUX, FRANCE
15 593 YOUNG DAVID 05:32:31 E 2 311.08 WITHAM, UK
16 28 FOUQUET PASCAL 05:32:41 E 3 311.03 DESVRES, FRANCE
17 712 NOGUEIRA FERNAND 05:32:47 D 7 310.99 COLOMBES, FRANCE
18 83 WILLIATTE HERVE 05:32:49 E 4 310.98 LOMPRET, France
19 188 COTTIN DENIS 05:32:53 D 8 310.95 Radinghem en weppes, France
20 598 WOODCOCK ANTONY 05:32:59 G 1 310.92 BRENTWOOD, Royaume-Uni
21 143 DUCROCQ STEPHANE 05:33:29 D 9 310.74 DUNKERQUE, FRANCE
22 415 KIDD RICHARD TOM 05:33:29 C 3 310.74 CHERTSEY SURREY, Royaume-Uni
23 412 PETER CRAIG 05:33:37 D 10 310.69 HANTS, Royaume-Uni
24 518 VANHOUTTE FRANCK 05:35:07 D 11 310.16 ABBEVILLE ST LUCIEN, FRANCE
25 666 VERIN JEROME 05:35:32 C 4 310.01 CALAIS, FRANCE
26 671 CHALAS JEAN PIERRE 05:35:37 D 12 309.98 BERLES MONCHELS, FRANCE
27 699 DUQUENNE PASCAL 05:35:46 D 13 309.93 GAURAIN RAMECROIX, BELGIQUE
28 711 SPEYBROUCK FILIP 05:36:08 C 5 309.79 BRUGGE, BELGIQUE
29 552 GILLOOTS STEPHANE 05:36:46 D 14 309.57 COURSET, FRANCE
30 696 ODILE PATRICK 05:36:50 E 5 309.54 REIMS, FRANCE
31 557 BRIENS BERNARD 05:36:54 E 6 309.52 berville en roumois, France
32 569 DEROUBAIX DOMINIQUE 05:36:56 E 7 309.51 LIVRY GARGAN, FRANCE
33 41 VERRIER CLAUDE 05:36:59 G 2 309.49 ARNAGE, FRANCE
34 490 LANNOO LAURENT 05:37:03 D 15 309.47 MOUVAUX, FRANCE
35 689 GERARD FRANCOIS 05:37:07 E 8 309.44 SAINT AUBIN ROUTOT, FRANCE
36 635 COLLU CLAUDE 05:37:13 E 9 309.41 BOUSSY ST ANTOINE, FRANCE
37 37 MATHIS ERIC 05:39:15 D 16 308.68 CORMEILLE EN PARISIS, FRANCE
38 693 NEIRYNCK PATRICK 05:39:18 D 17 308.66 STEKENE, BELGIQUE
39 466 HUBERT NICOLAS 05:39:23 C 6 308.63 BARENTIN, FRANCE
40 446 GUILLAUME ALEXANDRE 05:39:39 C 7 308.54 FRANCONVILLE, FRANCE
42 221 CHARLES GILBERT 05:40:03 C 8 308.39 , FRANCE
43 619 NETTERSHEIM J.BAPTISTE 05:40:40 C 9 308.18 AMIENS, FRANCE
44 642 MOORTGAT PAUL 05:41:39 E 10 307.82 HULSHOUT, BELGIQUE
45 90 PONCHEL RICHARD 05:41:44 F 2 307.79 BURBURE, FRANCE
46 75 FOULOUNOUX THIERRY 05:41:46 E 11 307.78 PARIS, FRANCE
47 165 TYE KEVIN 05:42:05 E 12 307.67 MAIDSTONE (KENT), Royaume-Uni
48 680 PRUD HOMME RICHARD 05:42:22 D 18 307.57 ANSACQ, FRANCE
49 91 LEFRANC PATRICK 05:43:19 D 19 307.23 BURBURE, FRANCE
50 632 FOURDRAINE LUC 05:45:23 E 13 306.49 LAIGNEVILLE, FRANCE
51 716 FIERS OLIVIER 05:45:31 D 20 306.44 VALENCIENNES, FRANCE
52 155 FROIDMONT ANDRE 05:45:36 F 3 306.41 HACCOURT, BELGIQUE
53 154 DEWEZ PIERRE 05:48:58 E 14 305.21 TROIS-PONTS, BELGIQUE
54 531 VERCRUYSSE GEERT 05:49:01 E 15 305.19 GULLEGEM, BELGIQUE
55 2205 FOURMONT ROBERT 05:49:10 E 16 305.14 FOUGERES, FRANCE
56 684 CROMBEZ HUBERT 05:49:12 D 21 305.13 BOURG ACHARD, FRANCE
57 675 CACHOU THIERRY 05:49:20 D 22 305.08 YEBLERON, FRANCE
58 522 PRION VINCENT 05:49:21 C 10 305.07 FLORIFFOUX, BELGIQUE
59 515 LAUGIER JEAN-MICHEL 05:49:29 E 17 305.03 FECAMP, FRANCE
60 120 SAMRAY FRANCIS 05:49:32 E 18 305.01 LIERNEUX, BELGIQUE
61 57 ROCHE JEAN CLAUDE 05:50:40 F 4 304.60 ST QUENTIN, FRANCE
62 225 DAVOURIE ANTHONY 05:51:09 C 11 304.43 HAEDINVAST, FRANCE
63 163 VIGNERON J.LOUIS 05:52:23 E 19 303.99 VINCENNES, FRANCE
64 49 ARENS JEAN CLAUDE 05:52:42 F 5 303.88 FROIDECONCHE, FRANCE
65 51 DICKHOUT JAN 05:52:47 F 6 303.85 EINDHOVEN, Pays-Bas
66 514 BAUDELLE PATRICE 05:52:51 E 20 303.82 THIENNES, FRANCE
67 223 CHARLEY FRANCIS 05:53:05 F 7 303.74 SAINT MAULVIS, FRANCE
68 533 DEWAEGENAERE FRANK 05:53:39 D 23 303.54 KORTRIJK, BELGIQUE
69 150 JADOT JEAN 05:53:44 E 21 303.51 BRUXELLES, BELGIQUE
70 661 DAREAU PHILIPPE 05:54:06 E 22 303.38 MONTATAIRE, FRANCE
71 437 PALENGE YVAN 05:54:32 D 24 303.22 OUGREE, Belgique
72 538 GALEA XAVIER 05:54:35 D 25 303.21 BEAUVAIS, FRANCE
73 277 BLONDIN MARCEL 05:54:45 F 8 303.15 AMIENS, FRANCE
74 544 COLAUT JULIEN 05:54:48 C 12 303.13 RONCHIN, FRANCE
75 511 GIVELET J.CLAUDE 05:54:51 F 9 303.11 STE ADRESSE, FRANCE
76 477 SANNIER ALBERT 05:54:57 D 26 303.07 PIERREVERT, FRANCE
77 580 ENGLISH PETER 05:54:58 E 23 303.07 LINCOLN, Royaume-Uni
78 82 HOCHART FREDERIC 05:55:00 E 24 303.06 SŠVRES, FRANCE
79 226 BONAMY MARC 05:55:22 D 27 302.93 GARCHES, FRANCE
80 173 DUBROMEL CHRISTOPHE 05:55:37 D 28 302.84 RONCHIN, FRANCE
81 643 VERSCHUEREN WILLY 05:55:41 F 10 302.81 HALLAAR, BELGIQUE
82 123 MIDDLETON KEITH 05:56:27 E 25 302.54 LINCOLN, Royaume-Uni
83 228 FOURNIER JEAN FRANCOIS 05:56:39 D 29 302.47 GARCHES, FRANCE
84 541 VASSEUR LAURENT 05:56:44 D 30 302.44 MILLY SUR THERAIN, FRANCE
85 454 SKRIDLA ERIC 05:56:47 E 26 302.42 LILLE ARMEES, FRANCE
86 470 FOURMENTEL YANNICK 05:56:52 D 31 302.39 COUDEKERQUE VILLAGE, FRANCE
87 488 VAN RIJCKEGHEM WIM 05:56:55 D 32 302.37 ANZEGEM (KASTER), BELGIQUE
88 506 HINCHCLIFFE ROBERT 05:57:01 C 13 302.34 NOTTINGHAM, Royaume-Uni
89 81 LEBOURGEOIS CHRISTIAN 05:57:04 E 27 302.32 CAEN, FRANCE
90 103 LENOIR JOEL 05:57:06 F 11 302.31 ISBERGUES, FRANCE
91 481 VAN RIJCKEGHEM WARD 05:57:10 D 33 302.28 NAZARETH, BELGIQUE
92 2204 MANCEAU DANIEL 05:57:12 E 28 302.27 FLEURIGNE, FRANCE
93 676 DELODDERE MICHEL 05:57:15 F 12 302.25 MILLY SUR THERAIN, FRANCE
94 603 LE METAYER ALAIN 05:57:26 F 13 302.19 BUSSY ST GEORGES, FRANCE
95 672 STAELENS HUGO 05:57:32 E 29 302.15 VARSENARE, BELGIQUE
96 26 PEGUIN BERNARD 05:57:35 F 14 302.13 COUPVRAY, FRANCE
97 542 BECQUET MICHAEL 05:57:42 C 14 302.09 ROQUETOIRE, FRANCE
98 486 CATANI ALDO 05:57:49 F 15 302.05 LUXEMBOURG, 23
99 517 FOURNIER EDDY 05:57:52 C 15 302.03 SAINT SULPICE, FRANCE
100 136 NISIN CHRISTOPHE 05:57:58 D 34 302.00 MONTMAGNY, FRANCE
101 145 AUGER PASCAL 05:58:05 E 30 301.96 ENGHIEN LES BAINS, FRANCE
102 439 DANGLETERRE CYRIL 05:58:06 D 35 301.95 DAINVILLE, France
103 629 DOYLE KEVIN 05:58:14 E 31 301.90 LONDON, Royaume-Uni
104 146 SAUTEREAU ANDRE 05:58:20 E 32 301.87 PRECY SUR OISE, FRANCE
105 162 TROY JACQUELINE 05:58:46 B 1 301.71 HENIN BEAUMONT, FRANCE
106 161 BLANQUET OLIVIER 05:58:56 D 36 301.65 QUIERY LA MOTTE, FRANCE
107 604 VAN HAREN HUUB 05:59:33 F 16 301.43 HAPS, Pays-Bas
108 633 MARTIN MARC 06:00:01 E 33 301.27 NAMUR, Belgique
109 167 PRION MICHEL 06:00:10 E 34 301.21 FLORIFFOUX, BELGIQUE
110 704 SPATOLA JEAN PIERRE 06:00:14 D 37 301.19 CONFLANS STE HONORINE, FRANCE
111 640 VAN DE VELDE RONALD 06:00:34 E 35 301.07 HEIST OP DEN BERG, BELGIQUE
112 667 CONAN LOIC 06:00:35 D 38 301.06 LAMBERSART, FRANCE
113 404 ORFORD DAVID 06:02:57 E 36 300.22 RUGELEY, Royaume-Uni
114 582 MARSZALEK MARYAN FRANCOIS 06:03:08 F 17 300.15 RUMIGNY, FRANCE
115 171 BEERNAERT DIRK 06:04:23 E 37 299.71 KUURNE, BELGIQUE
116 532 DUCHI KRISTIAN 06:04:32 E 38 299.65 KUURNE, BELGIQUE
117 566 LEMAITRE J.CLAUDE 06:04:49 F 18 299.55 CUCQ, FRANCE
118 647 VERSCHUEREN JOS 06:05:00 G 3 299.49 HEIST OD BERG, BELGIQUE
119 641 VAN ROMPAEY LOUIS 06:05:31 F 19 299.30 BERLAAR, BELGIQUE
120 688 TRINEL REGIS 06:06:27 E 39 298.97 BETHUNE, France
121 264 TAMPIGNY SYLVAIN 06:06:33 E 40 298.93 CAMON, FRANCE
122 501 BRAY JULIAN 06:06:34 D 39 298.93 LONDRES, Royaume-Uni
123 630 ROWLANDS JAMES 06:06:40 C 16 298.89 LONDON, Royaume-Uni
124 184 DUFOSSE FRANCOIS 06:06:46 D 40 298.86 VILLER S/ MAREUIL, FRANCE
125 138 KLIS DIDIER 06:07:03 D 41 298.75 LOON PLAGE, France
126 606 ROBIN J.CLAUDE 06:08:10 F 20 298.36 CROSSAC, FRANCE
127 374 ROBSON TIM 06:08:45 D 42 298.15 OTLEY, Royaume-Uni
128 8 RASKIN MADELEINE 06:09:42 B 2 297.81 SPRIMONT, BELGIQUE
129 9 PIRONT J.PIERRE 06:09:44 E 41 297.80 LOUVEIGNE, BELGIQUE
130 101 VAILLANT FRANCK 06:09:45 D 43 297.79 MONT BERNANCHON, FRANCE
131 397 CALANDRI J.FRANCOIS 06:09:49 E 42 297.77 CLAMART, FRANCE
132 126 SCHWARZ PATRICK 06:10:59 E 43 297.35 ABBEVILLE, FRANCE
133 590 GRAY MICK 06:11:52 E 44 297.03 CHELMSFORD, Royaume-Uni
134 624 DANIEL JOEL 06:11:54 D 44 297.02 AULNAY SOUS BOIS, FRANCE
135 534 TERRIE MARTIN 06:12:34 E 45 296.78 KORTRIJK, BELGIQUE
136 157 DURNEZ LIEVE 06:12:41 A 1 296.74 OOSTDUINKERKE, BELGIQUE
137 97 ROGER MAURICE 06:12:43 G 4 296.73 COURS DE PILE, FRANCE
138 609 GARREAU GILLES 06:12:46 D 45 296.71 Vallées en Champagne, France
139 645 WIJNENS GISLAIN 06:12:49 F 21 296.69 HEIST OD BERG, BELGIQUE
140 179 LECOIN ARMAND 06:12:56 F 22 296.65 MIANNAY, FRANCE
141 682 LONGUET RAYNALD 06:12:59 F 23 296.64 LE GROS THEIL, FRANCE
142 685 DAVID GILLES 06:13:02 D 46 296.62 BOURGTHEROULDE, FRANCE
143 158 COMPERNOLLE FREDDY 06:13:20 E 46 296.51 OOSTDUINKERKE, BELGIQUE
144 502 ALLEN HUGO 06:14:13 E 47 296.19 LONDRES, Royaume-Uni
145 99 PANIEZ PIERRE 06:14:28 F 24 296.11 ST VENANT, FRANCE
146 102 FLECHAUX PIERRE MARIE 06:14:33 F 25 296.08 BUSNES, FRANCE
147 183 NOZIERE BRUNO 06:14:36 D 47 296.06 EAUCOURT, FRANCE
148 227 RAMBLIERE YANNICK 06:16:26 C 17 295.40 GARCHES, FRANCE
149 428 DINI ASTELIO 06:22:18 E 48 293.31 BREBIERES, FRANCE
150 562 NESI CLAUDE 06:23:15 F 26 292.97 AMIENS, FRANCE
151 705 HARDOIN JEAN-FRANCOIS 06:23:30 C 18 292.88 NORDAUSQUES, FRANCE
152 93 LECLERCQ MARCEL 06:23:52 E 49 292.75 LOUVEIGNE, BELGIQUE
153 56 THOMAS JONATHAN 06:25:20 E 50 292.23 GUILDFORD, Royaume-Uni
154 270 FESNEAU HUBERT 06:25:54 F 27 292.02 SAINT OUEN LE PIN, FRANCE
155 119 PLET MICHEL 06:25:59 G 5 291.99 PERRIERS LA CAMPAGNE, FRANCE
156 254 BEYNON CHRIS 06:26:01 D 48 291.98 COWLEY, Royaume-Uni
157 130 DOUVILLE GERARD 06:26:06 E 51 291.95 HAUTE EPINE, FRANCE
158 419 MANACH FRANCOIS 06:26:34 E 52 291.79 HALLENCOURT, FRANCE
159 207 BONNEAU GERARD 06:27:25 F 28 291.48 BOU, FRANCE
160 394 CORLUY MARC 06:28:18 E 53 291.17 WOMMELGEM, BELGIQUE
161 706 BENOIT JEAN NOEL 06:29:04 F 29 290.89 SAILLY, FRANCE
162 464 CARON THIERRY 06:29:54 D 49 290.60 ROUMARE, FRANCE
163 230 DEMARCHE LEOPOLD 06:29:55 F 30 290.59 BAILLONVILLE, BELGIQUE
164 613 FELLEMANN DANIEL 06:30:02 E 54 290.55 LE BLANC MESNIL, FRANCE
165 132 YGOUT FRANCIS 06:30:10 E 55 290.50 BARENTIN, FRANCE
166 108 DUPONT REMY 06:30:12 F 31 290.49 LES ANDELYS, FRANCE
167 401 KING ERIC 06:30:19 G 6 290.45 TAMWORTH, Royaume-Uni
168 507 HINCHCLIFFE BOB 06:30:23 G 7 290.42 DONCASTER, Royaume-Uni
169 499 ROUSSEL HUGUES 06:30:25 E 56 290.41 QUEND, FRANCE
170 398 BISTER JONATHON 06:30:29 D 50 290.39 SUTTON COLFIELD, Royaume-Uni
171 406 PERKS JOHN 06:30:31 G 8 290.38 SUTTON COLDFIELD, Royaume-Uni
172 707 SANSREFUS STEPHANE 06:32:41 C 19 289.60 TORCY, FRANCE
173 498 GRESSIER JACKY 06:33:20 D 51 289.37 SAINS-RICHAUMONT, FRANCE
174 431 POUILLARD GERARD 06:35:01 E 57 288.77 BUEIL, FRANCE
175 166 CARON MICHEL 06:35:02 E 58 288.76 ARMENTIERES, FRANCE
176 617 GREENALD TIMOTHY 06:35:05 C 20 288.74 STALYBRIDGE, Royaume-Uni
177 627 COOK MARTIN 06:37:00 F 32 288.06 SCEDHERDS BUSH, Royaume-Uni
178 529 BOISSADIE JEAN 06:38:08 F 33 287.65 PUISEUX EN RETZ, FRANCE
179 476 NOVAK BRUNO 06:38:26 D 52 287.55 ACHICOURT, FRANCE
180 456 LEPETIT BERNARD 06:38:55 F 34 287.38 LE HAVRE, FRANCE
181 683 WANAT FABIEN 06:38:57 C 21 287.36 NOMAIN, FRANCE
182 291 PERONE RAFFAELE 06:39:29 E 59 287.17 COLLEGIEN, FRANCE
183 135 FIERS PHILIPPE 06:39:33 E 60 287.15 CARVIN, FRANCE
184 156 CARPENTIER FRANCIS 06:39:40 E 61 287.11 AYWAILLE, BELGIQUE
185 687 HOSTACHY ETIENNE 06:41:16 E 62 286.54 ST ARNOULT, FRANCE
186 558 SUEUR JOSEPH 06:41:21 F 35 286.51 VRON, FRANCE
187 519 GALTIER J.PAUL 06:42:13 E 63 286.20 ALBI, FRANCE
188 701 PRUVOST RENE 06:42:40 F 36 286.04 MONDICOURT, FRANCE
189 276 LOUESDON JEAN MICHEL 06:42:47 F 37 286.00 BERTEAUCOURT LES DAMES, FRANCE
190 187 FRAIKIN FRANCOIS 06:43:23 F 38 285.78 LIEGE, BELGIQUE
191 284 LAFARGE DOMINIQUE 06:44:17 H 1 285.46 AMIENS, FRANCE
192 285 DUFOUR JEAN MARIE 06:44:19 H 2 285.45 ST NICOLAS D ALIERMONT, FRANCE
193 114 LEITCH JOHN 06:44:24 F 39 285.42 BETCHWORTH, SURREY, UK
194 614 HECQUET MICHEL 06:44:24 F 40 285.42 AIRAINES, FRANCE
195 543 GOETHALS GILLES 06:44:28 E 64 285.39 RONCHIN, FRANCE
196 176 TARTARE DAVID 06:44:35 D 53 285.35 FOUQUIERES LES BETHUNE, France
197 646 VAN BEMMEL JOSEPH 06:45:29 E 65 285.03 HOOGLAND, Pays-Bas
198 113 RICKARD JULIAN 06:45:39 C 22 284.97 EWELL, Royaume-Uni
199 618 DAY JOHN 06:45:39 F 41 284.97 EPSOM SURREY, Royaume-Uni
200 189 COLLIN FABRICE 06:45:50 E 66 284.91 BEAUVAIS, FRANCE
201 420 BINNS JOHN 06:46:42 E 67 284.60 LONDON, FRANCE
202 449 MARTIN DAVID 06:47:32 D 54 284.30 LILLE ARMEES, FRANCE
203 199 GUIDEZ JEAN MICHEL 06:48:48 F 42 283.85 LAMBERSART, France
204 479 SMOLAREK J.PAUL 06:48:50 E 68 283.83 CAMPAGNE-LES-HESPIN, FRANCE
205 137 COURTOIS RAYMOND 06:49:13 G 9 283.70 SULLY, FRANCE
206 628 DIEDERICH CHRISTIAN 06:49:36 E 69 283.56 VILVOORDE, BELGIQUE
207 124 LESCUREUX JEAN 06:51:06 F 43 283.02 RAINNEVILLE, FRANCE
208 450 LANTOINE VINCENT 06:52:48 C 23 282.42 LILLE ARMEES, FRANCE
209 438 SIGNORE PASCAL 06:52:53 E 70 282.39 PONTARME, France
210 252 WITTS CHARLES JOHN 06:53:37 E 71 282.13 SURREY, France
211 400 BULLINGHAM CARL 06:53:54 D 55 282.02 SUTTON COLFIELD, Royaume-Uni
212 283 HEDIN JEAN-PIERRE 06:56:58 F 44 280.93 AMIENS, FRANCE
213 485 KERMOAL FRANK 06:57:01 D 56 280.91 BERTRANGE, LUXEMBOURG
214 571 TIFFEN TERRY 06:57:52 E 72 280.61 Springwell, Royaume-Uni
215 88 ETIENNE JEAN 06:57:55 F 45 280.59 AYWAILLE, BELGIQUE
216 583 MARSZALEK OLIVIER 06:58:45 C 24 280.29 RUMIGNY, FRANCE
217 581 WAROT COME 06:58:49 D 57 280.27 EPERLECQUES, FRANCE
218 659 DESWARTVAGER MICHEL 06:58:52 F 46 280.25 DRESLINCOURT RIBECOURT, FRANCE
219 577 DE SOUZA ANTONIO 06:59:07 E 73 280.16 MONTMAIN, FRANCE
220 149 MARIE PASCAL 06:59:11 E 74 280.14 VILLIERS SUR MARNE, FRANCE
221 371 JOHNSON CHRIS 06:59:31 D 58 280.02 BRADFORD, Royaume-Uni
222 290 BERTHE ALAIN 07:00:52 G 10 279.54 DOULLENS, FRANCE
223 292 HARQUIN ALAIN 07:00:56 E 75 279.51 NAMPONT ST MARTIN, FRANCE
224 512 BEKAERT ROBERT 07:00:56 E 76 279.51 DAINVILLE, FRANCE
225 218 BLIN MICHEL 07:02:29 F 47 278.96 BRUCAMPS, FRANCE
226 368 GASCOIGNE CHRISTINE 07:02:33 B 3 278.94 LEEDS, Royaume-Uni
227 369 RAMSDALE JANE 07:02:36 B 4 278.92 LEEDS, Royaume-Uni
228 686 GAILLARD PATRICK 07:02:38 F 48 278.91 CHEVILLY LA RUE, FRANCE
229 442 LEURETTE GUY 07:02:47 F 49 278.85 QUESTRECQUES, FRANCE
231 592 FEWTRELL ANDY 07:03:11 D 59 278.71 CREWE, Royaume-Uni
232 622 TEUSINK GERT 07:03:48 D 60 278.49 LEIDSCHENDAM, Pays-Bas
233 489 CARRE SERGE 07:04:36 D 61 278.20 LUXEMBOURG, 23
234 576 TAYLOR DAVID 07:05:30 C 25 277.88 HURLEY, Royaume-Uni
235 575 EDWARDS JASON 07:05:33 D 62 277.87 HORSHAM, Royaume-Uni
236 195 OMONT ALBERT 07:06:25 F 50 277.56 SABRAS, FRANCE
237 299 BARCLAY DANNY 07:07:59 D 63 277.00 Letchworth, Hertfordshire, Royaume-Uni
238 117 EARLE MARTIN 07:08:05 D 64 276.96 LONDON, FRANCE
239 430 CHIROUX CYRIL 07:09:05 C 26 276.60 LIMEIL-BREVANNES, FRANCE
240 521 THOMAS PHILIPPE 07:09:09 E 78 276.58 EPINAL, FRANCE
241 169 MUZYCZKA BRUNO 07:09:42 D 65 276.38 AIRAINES, FRANCE
242 469 LAMOTTE MICHEL 07:09:47 F 51 276.35 GLISY, FRANCE
243 621 Apontoweil Ron 07:10:28 E 79 276.11 NIEUWKOOP, Pays-Bas
244 131 SEVESTRE DOMINIQUE 07:14:12 D 66 274.78 GUYANCOURT, France
245 255 OXLEY STEVE 07:15:47 E 80 274.21 THATCHAM, Royaume-Uni
246 610 WORST LAURENS 07:16:11 D 67 274.07 , Royaume-Uni
247 261 MOISSERON SERGE 07:16:16 F 52 274.04 BAR LE DUC, FRANCE
248 436 WANLIN RENE 07:18:02 G 11 273.41 LIEGE, BELGIQUE
249 703 LECOQ MARCEL 07:18:11 F 53 273.35 VERNEUIL SUR SEINE, FRANCE
250 591 FEWTRELL LORNA 07:18:16 A 2 273.32 CREWE, Royaume-Uni
251 433 POUILLARD SEBASTIEN 07:18:20 C 27 273.30 BOISSY ST LEGER, FRANCE
253 574 DUCHEMIN BERNARD 07:19:03 E 81 273.05 VILLERS SUR MAREUIL, FRANCE
254 294 PLANQUART PHILIPPE 07:20:25 E 82 272.56 ERGNIES, FRANCE
255 296 CAUCHY STEPHANE 07:20:31 D 69 272.52 SALOUEL, FRANCE
256 567 LOUCHART BRUNO 07:20:36 E 83 272.49 ABBEVILLE, FRANCE
257 421 MUTHER JACQUES 07:25:39 G 12 270.69 GOUVERNES, FRANCE
258 636 DEMOUILLER PASCAL 07:26:43 E 84 270.31 VITRY EN ARTOIS, FRANCE
259 392 COCQUERELLE ANNE 07:30:18 A 3 269.03 MARQUISE, FRANCE
260 638 VOLLEKINDT PHILIPPE 07:31:30 E 85 268.60 ROUBAIX, FRANCE
261 698 COTTRAIS ALAIN 07:32:13 E 86 268.34 CAGNU, FRANCE
262 482 TELLIER JACK 07:32:23 F 54 268.28 AMIENS, FRANCE
263 416 NELLE DOMINIQUE 07:32:41 D 70 268.18 COLOMBES, FRANCE
264 302 CLARK BARRY 07:32:48 F 55 268.13 BISHUPS STORTFORD HERTS, Royaume-Uni
265 554 BOURDON DANIEL 07:33:23 F 56 267.93 OISY LE VERGER, FRANCE
266 639 VAN GOETHEN BERNARD 07:33:45 G 13 267.80 HOUTVENNE, BELGIQUE
267 637 GOBE DAVID 07:33:51 D 71 267.76 VITRY EN ARTOIS, FRANCE
268 550 CROKER JOANNE 07:33:53 A 4 267.75 LONDON, Royaume-Uni
269 549 CROKER ANDREW 07:33:58 E 87 267.72 LONDON, Royaume-Uni
270 178 FOUQUET DANIEL 07:34:45 F 57 267.44 COLOMBES, France
271 76 PATIENCE JENNIFER 07:35:53 B 5 267.03 ESSEX, Royaume-Uni
272 77 TAPE DANIEL 07:35:57 E 88 267.01 CHELMSFORD, Royaume-Uni
273 376 BELDON CLIFF 07:36:14 F 58 266.91 HECKMONDWYKE, Royaume-Uni
274 600 FOURDRINIER J.PIERRE 07:37:11 F 59 266.57 MAISON ROLAND, FRANCE
275 269 CORNE PHILIPPE 07:37:14 F 60 266.55 ALLONVILLE, France
276 594 TELLING JOB 07:38:51 E 89 265.98 ZALTBOMMEL, Pays-bas
277 595 MULDER RONALD 07:38:56 E 90 265.94 AMSTERDAM, Pays-Bas
278 702 MIGNOT MICHEL 07:38:57 F 61 265.94 MONTMAIN, FRANCE
279 623 ZAJAC TON 07:41:26 D 72 265.05 LEIDEN, Pays-Bas
280 372 MARSDEN BERNARD 07:42:45 F 62 264.58 BRADFORD, Royaume-Uni
281 2 SANNIER ANTOINE 07:44:00 C 28 264.14 PARIS, France
282 1 SANNIER HENRI 07:44:01 F 63 264.13 PARIS, France
283 585 BOUTE BENOIT 07:44:13 C 29 264.06 MARTHOD, FRANCE
284 587 DADIER SIMON 07:44:16 C 30 264.04 DRUCAT, FRANCE
285 214 PLISSON ANTHONY 07:44:20 C 31 264.02 , FRANCE
286 192 ARNOLD MICHEL 07:44:25 D 73 263.99 NEUVILLE EN FERRAIN, France
287 588 DUPONT J.CLAUDE 07:44:28 G 14 263.97 EAUCOURT, FRANCE
288 194 WATTEBLED CHRISTIAN 07:44:31 E 91 263.95 SAILLY FLIBEAUCOURT, FRANCE
289 198 VALLEE JOSE 07:44:34 F 64 263.93 RUEIL, FRANCE
290 217 BOUCHER HERVE 07:44:39 E 92 263.90 SAILLY FLIBEAUCOURT, FRANCE
291 527 AGRARE J. FRANCOIS 07:44:43 E 93 263.88 AUMATRE, FRANCE
292 3 SANNIER PIERRE 07:44:46 E 94 263.86 QUESNOY LE MONTANT, FRANCE
293 210 GRIGNON RENE 07:44:52 F 65 263.83 CONFLANS STE HONORINE, FRANCE
294 586 BOUTE JEAN JACQUES 07:44:58 F 66 263.79 CERISY BULEUX, FRANCE
295 390 PEART ANTHONY 07:45:02 E 95 263.77 LONDON, Royaume-Uni
296 396 INDURAIN ROBERT 07:45:02 G 15 263.77 BEAUMONT LE ROGER, France
297 298 PAINE ANTHONY 07:45:09 F 67 263.73 BATH, Royaume-Uni
298 448 ROBBERECHT MARLEEN 07:45:13 A 5 263.70 DENDERMONDE, BELGIQUE
299 447 NEIRYNCK LUC 07:45:16 E 96 263.68 DENDERMONDE, BELGIQUE
300 504 ARMSTRONG ABIGAIL 07:48:40 A 6 262.47 LONDON, Royaume-Uni
301 505 STEELE DAVID 07:48:50 D 74 262.41 LONDON, Royaume-Uni
302 584 AUBRON BERNARD 07:50:15 G 16 261.90 CAOURS L HENRE, FRANCE
303 644 VERBEEK ANDRE 07:52:15 F 68 261.19 HEIST OD BERG, BELGIQUE
304 134 GOUARD ANICK 07:58:33 B 6 258.94 PETIT APPEVILLE, FRANCE
305 205 MAURENAS CHRISTIAN 08:00:58 E 97 258.08 , FRANCE
306 615 DENIS FABRICE 08:02:53 E 98 257.39 CHARLEVILLE MEZIERES, FRANCE
307 548 ANDRIEN JEAN-CLAUDE 08:04:05 E 99 256.96 CHAINEUX, BELGIQUE
308 547 IANNIELLO ANTONIO 08:04:06 E 100 256.96 THIMISTER-CLERMONT, BELGIQUE
309 546 WEHR MICHEL 08:04:12 D 75 256.92 STEMBERT, BELGIQUE
310 366 WATERS ANDREW 08:04:46 E 101 256.72 LEEDS, Royaume-Uni
311 300 SCOTT PETER 08:04:51 E 102 256.69 LONDON, Royaume-Uni
312 257 CHANIN NEVILLE 08:07:05 G 17 255.89 STROUD, Royaume-Uni
313 451 BOUCHIND HOMME JEAN-MARC 08:10:40 D 76 254.61 LILLE ARMEES, FRANCE
314 631 MARSHALL JOHN 08:14:44 F 69 253.16 CANTERBURY, Royaume-Uni
315 503 GRIFFITHS ANDREW 08:19:16 D 77 251.54 LONDON, Royaume-Uni
316 513 GILLINGHAM ROBIN 08:21:15 D 78 250.84 DORSET, Royaume-Uni
317 142 HERMANT FRANCK 08:22:59 E 103 250.22 ST LEGER LES DOMART, FRANCE
318 445 DELSAUT MICHELE 08:26:33 B 7 248.94 ST QUENTIN, FRANCE
319 417 MAZZA FREDERIC 08:26:41 D 79 248.90 DEUIL LA BARRE, FRANCE
320 47 FARGUES HENRI 08:29:57 F 70 247.73 MURAT SUR VERBE, FRANCE
321 22 FARGUES CLAUDINE 08:30:02 B 8 247.70 MURAT SUR VEBRE, FRANCE
322 289 RENOU PIERRE YVES 08:51:27 E 104 240.05 ST AUBIN DES LANDES, FRANCE
323 678 SABALSKI HENRI 08:53:27 F 71 239.34 FENAIN, FRANCE
324 679 BARTKOWIAK JEAN PIERRE 08:53:29 E 105 239.33 ERRE, FRANCE
325 535 STEVENS THIERRY 08:53:32 D 80 239.31 SOMAIN, FRANCE
326 536 DAZIN THIERRY 08:53:34 D 81 239.30 FENAIN, FRANCE
327 403 QUAIFE PETER 08:59:29 D 82 237.18 BIRMINGHAM, Royaume-Uni
328 714 JORDAN ANDREW 08:59:33 D 83 237.16 KINGSTON UPON THAMES, Royaume-Uni
329 381 WEEMAELS DANIEL 09:21:46 F 72 229.23 RHODE ST GENESE, BELGIQUE
330 399 ATKINS WALTER 10:00:26 G 18 215.42 TAMWORTH, Royaume-Uni
331 402 NEWTON JOHN 10:00:42 G 19 215.32 LEICS, Royaume-Uni

La Vaujany

Après une saison 2020 très particulière et face à cette pandémie qui s'étire en longueur, nous avons dû nous adapter.

Ainsi, c'est avec beaucoup de regrets que nous vous annonçons que La Vaujany ne sera pas organisée en 2021.

Nous travaillons afin que vous puissiez relever le défi de manière alternative.

Nous vous tiendrons informés.
TOP